Data supplied by UK-AIR on 8/11/2015
All Data GMT hour ending 
Status: R =Ratified P=Provisional,P*=As supplied
,,Tower Hamlets Roadside,,,,,,,,,,,,,,,,,,,,,,,
Date,time,"Nitric oxide",status,unit,"Nitrogen dioxide",status,unit,"Nitrogen oxides as nitrogen dioxide",status,unit
 
01-01-2014,01:00,2.38900,R,ugm-3,11.80076,R,ugm-3,15.46384,R,ugm-3
01-01-2014,02:00,4.03502,R,ugm-3,21.82609,R,ugm-3,28.01303,R,ugm-3
01-01-2014,03:00,2.86723,R,ugm-3,16.37052,R,ugm-3,20.76688,R,ugm-3
01-01-2014,04:00,3.42446,R,ugm-3,19.40231,R,ugm-3,24.65308,R,ugm-3
01-01-2014,05:00,2.38920,R,ugm-3,16.67843,R,ugm-3,20.34183,R,ugm-3
01-01-2014,06:00,2.58846,R,ugm-3,12.72960,R,ugm-3,16.69852,R,ugm-3
01-01-2014,07:00,2.74780,R,ugm-3,14.18549,R,ugm-3,18.39873,R,ugm-3
01-01-2014,08:00,1.47337,R,ugm-3,18.87207,R,ugm-3,21.13121,R,ugm-3
01-01-2014,09:00,1.79206,R,ugm-3,16.44033,R,ugm-3,19.18811,R,ugm-3
01-01-2014,10:00,1.83166,R,ugm-3,12.97918,R,ugm-3,15.78769,R,ugm-3
01-01-2014,11:00,1.55289,R,ugm-3,11.64569,R,ugm-3,14.02675,R,ugm-3
01-01-2014,12:00,1.87126,R,ugm-3,8.85009,R,ugm-3,11.71932,R,ugm-3
01-01-2014,13:00,1.83197,R,ugm-3,9.94261,R,ugm-3,12.75159,R,ugm-3
01-01-2014,14:00,2.07083,R,ugm-3,11.15513,R,ugm-3,14.33036,R,ugm-3
01-01-2014,15:00,2.62837,R,ugm-3,15.82594,R,ugm-3,19.85605,R,ugm-3
01-01-2014,16:00,2.11043,R,ugm-3,13.34112,R,ugm-3,16.57707,R,ugm-3
01-01-2014,17:00,2.30969,R,ugm-3,14.73581,R,ugm-3,18.27728,R,ugm-3
01-01-2014,18:00,2.70789,R,ugm-3,14.79319,R,ugm-3,18.94523,R,ugm-3
01-01-2014,19:00,2.62837,R,ugm-3,13.33634,R,ugm-3,17.36646,R,ugm-3
01-01-2014,20:00,3.50429,R,ugm-3,12.66123,R,ugm-3,18.03440,R,ugm-3
01-01-2014,21:00,3.46406,R,ugm-3,12.05497,R,ugm-3,17.36646,R,ugm-3
01-01-2014,22:00,2.15066,R,ugm-3,16.86203,R,ugm-3,20.15966,R,ugm-3
01-01-2014,23:00,1.87157,R,ugm-3,12.06788,R,ugm-3,14.93758,R,ugm-3
01-01-2014,24:00,3.06618,R,ugm-3,13.27227,R,ugm-3,17.97368,R,ugm-3
02-01-2014,01:00,2.12665,R,ugm-3,13.11975,R,ugm-3,16.38056,R,ugm-3
02-01-2014,02:00,2.33952,R,ugm-3,12.95528,R,ugm-3,16.54249,R,ugm-3
02-01-2014,03:00,1.67512,R,ugm-3,10.62920,R,ugm-3,13.19768,R,ugm-3
02-01-2014,04:00,4.62655,R,ugm-3,18.44941,R,ugm-3,25.54335,R,ugm-3
02-01-2014,05:00,5.90254,R,ugm-3,27.62224,R,ugm-3,36.67267,R,ugm-3
02-01-2014,06:00,9.81126,R,ugm-3,36.28634,R,ugm-3,51.33007,R,ugm-3
02-01-2014,07:00,17.70761,R,ugm-3,48.50578,R,ugm-3,75.65707,R,ugm-3
02-01-2014,08:00,23.29146,R,ugm-3,46.69464,R,ugm-3,82.40771,R,ugm-3
02-01-2014,09:00,18.10674,R,ugm-3,50.44793,R,ugm-3,78.21121,R,ugm-3
02-01-2014,10:00,25.24535,R,ugm-3,51.48307,R,ugm-3,90.19207,R,ugm-3
02-01-2014,11:00,,,,,,,,,
02-01-2014,12:00,20.65934,R,ugm-3,45.07428,R,ugm-3,76.75149,R,ugm-3
02-01-2014,13:00,13.28063,R,ugm-3,33.39894,R,ugm-3,53.76229,R,ugm-3
02-01-2014,14:00,14.31776,R,ugm-3,32.66024,R,ugm-3,54.61383,R,ugm-3
02-01-2014,15:00,12.76269,R,ugm-3,35.89619,R,ugm-3,55.46537,R,ugm-3
02-01-2014,16:00,8.97339,R,ugm-3,34.52971,R,ugm-3,48.28871,R,ugm-3
02-01-2014,17:00,6.74010,R,ugm-3,37.89380,R,ugm-3,48.22847,R,ugm-3
02-01-2014,18:00,6.89975,R,ugm-3,39.77761,R,ugm-3,50.35708,R,ugm-3
02-01-2014,19:00,7.97648,R,ugm-3,38.97771,R,ugm-3,51.20814,R,ugm-3
02-01-2014,20:00,6.54084,R,ugm-3,38.50341,R,ugm-3,48.53256,R,ugm-3
02-01-2014,21:00,3.94833,R,ugm-3,26.36142,R,ugm-3,32.41544,R,ugm-3
02-01-2014,22:00,3.15068,R,ugm-3,23.02315,R,ugm-3,27.85413,R,ugm-3
02-01-2014,23:00,2.75186,R,ugm-3,21.14125,R,ugm-3,25.36071,R,ugm-3
02-01-2014,24:00,1.95452,R,ugm-3,15.30956,R,ugm-3,18.30645,R,ugm-3
03-01-2014,01:00,1.75911,R,ugm-3,14.14103,R,ugm-3,16.83829,R,ugm-3
03-01-2014,02:00,2.61185,R,ugm-3,11.04405,R,ugm-3,15.04883,R,ugm-3
03-01-2014,03:00,1.95889,R,ugm-3,8.71000,R,ugm-3,11.71358,R,ugm-3
03-01-2014,04:00,1.95857,R,ugm-3,8.46664,R,ugm-3,11.46974,R,ugm-3
03-01-2014,05:00,2.87846,R,ugm-3,11.99711,R,ugm-3,16.41068,R,ugm-3
03-01-2014,06:00,1.95889,R,ugm-3,14.44511,R,ugm-3,17.44869,R,ugm-3
03-01-2014,07:00,4.35744,R,ugm-3,18.94236,R,ugm-3,25.62368,R,ugm-3
03-01-2014,08:00,13.79171,R,ugm-3,38.15390,R,ugm-3,59.30089,R,ugm-3
03-01-2014,09:00,12.03270,R,ugm-3,43.59639,R,ugm-3,62.04628,R,ugm-3
03-01-2014,10:00,13.39195,R,ugm-3,39.07142,R,ugm-3,59.60545,R,ugm-3
03-01-2014,11:00,8.67466,R,ugm-3,29.16132,R,ugm-3,42.46228,R,ugm-3
03-01-2014,12:00,6.87543,R,ugm-3,27.03940,R,ugm-3,37.58158,R,ugm-3
03-01-2014,13:00,4.67675,R,ugm-3,23.02841,R,ugm-3,30.19933,R,ugm-3
03-01-2014,14:00,7.75540,R,ugm-3,22.02913,R,ugm-3,33.92058,R,ugm-3
03-01-2014,15:00,10.07382,R,ugm-3,31.77380,R,ugm-3,47.22010,R,ugm-3
03-01-2014,16:00,6.83583,R,ugm-3,29.60120,R,ugm-3,40.08265,R,ugm-3
03-01-2014,17:00,6.43638,R,ugm-3,26.98059,R,ugm-3,36.84957,R,ugm-3
03-01-2014,18:00,6.31633,R,ugm-3,33.93636,R,ugm-3,43.62126,R,ugm-3
03-01-2014,19:00,7.15576,R,ugm-3,31.30715,R,ugm-3,42.27916,R,ugm-3
03-01-2014,20:00,6.35624,R,ugm-3,25.33393,R,ugm-3,35.08003,R,ugm-3
03-01-2014,21:00,5.03722,R,ugm-3,22.65834,R,ugm-3,30.38198,R,ugm-3
03-01-2014,22:00,5.35684,R,ugm-3,20.70425,R,ugm-3,28.91796,R,ugm-3
03-01-2014,23:00,6.51590,R,ugm-3,21.61125,R,ugm-3,31.60215,R,ugm-3
03-01-2014,24:00,6.43607,R,ugm-3,24.29640,R,ugm-3,34.16490,R,ugm-3
04-01-2014,01:00,3.73982,R,ugm-3,20.78569,R,ugm-3,26.52000,R,ugm-3
04-01-2014,02:00,3.04549,R,ugm-3,17.11751,R,ugm-3,21.78720,R,ugm-3
04-01-2014,03:00,2.08362,R,ugm-3,13.87997,R,ugm-3,17.07480,R,ugm-3
04-01-2014,04:00,1.68292,R,ugm-3,12.90316,R,ugm-3,15.48360,R,ugm-3
04-01-2014,05:00,1.48273,R,ugm-3,13.45492,R,ugm-3,15.72840,R,ugm-3
04-01-2014,06:00,0.92176,R,ugm-3,8.80706,R,ugm-3,10.22040,R,ugm-3
04-01-2014,07:00,1.60278,R,ugm-3,10.27204,R,ugm-3,12.72960,R,ugm-3
04-01-2014,08:00,2.08424,R,ugm-3,13.45061,R,ugm-3,16.64640,R,ugm-3
04-01-2014,09:00,2.28443,R,ugm-3,14.24526,R,ugm-3,17.74800,R,ugm-3
04-01-2014,10:00,2.60436,R,ugm-3,15.16230,R,ugm-3,19.15560,R,ugm-3
04-01-2014,11:00,3.52581,R,ugm-3,15.95264,R,ugm-3,21.35880,R,ugm-3
04-01-2014,12:00,3.28570,R,ugm-3,20.29880,R,ugm-3,25.33680,R,ugm-3
04-01-2014,13:00,4.52801,R,ugm-3,22.24955,R,ugm-3,29.19240,R,ugm-3
04-01-2014,14:00,5.00853,R,ugm-3,21.20676,R,ugm-3,28.88640,R,ugm-3
04-01-2014,15:00,19.71451,R,ugm-3,43.82350,R,ugm-3,74.05200,R,ugm-3
04-01-2014,16:00,41.91240,R,ugm-3,72.76202,R,ugm-3,137.02680,R,ugm-3
04-01-2014,17:00,48.20378,R,ugm-3,78.66017,R,ugm-3,152.57160,R,ugm-3
04-01-2014,18:00,51.97031,R,ugm-3,85.92050,R,ugm-3,165.60720,R,ugm-3
04-01-2014,19:00,45.91966,R,ugm-3,81.36683,R,ugm-3,151.77600,R,ugm-3
04-01-2014,20:00,22.23905,R,ugm-3,65.59540,R,ugm-3,99.69480,R,ugm-3
04-01-2014,21:00,21.55740,R,ugm-3,60.52058,R,ugm-3,93.57480,R,ugm-3
04-01-2014,22:00,16.42819,R,ugm-3,50.45366,R,ugm-3,75.64320,R,ugm-3
04-01-2014,23:00,13.66355,R,ugm-3,47.96072,R,ugm-3,68.91120,R,ugm-3
04-01-2014,24:00,14.66575,R,ugm-3,46.24043,R,ugm-3,68.72760,R,ugm-3
05-01-2014,01:00,14.66160,R,ugm-3,46.93211,R,ugm-3,69.41291,R,ugm-3
05-01-2014,02:00,19.42379,R,ugm-3,53.87258,R,ugm-3,83.65530,R,ugm-3
05-01-2014,03:00,6.86265,R,ugm-3,36.07310,R,ugm-3,46.59567,R,ugm-3
05-01-2014,04:00,4.73537,R,ugm-3,31.41616,R,ugm-3,38.67697,R,ugm-3
05-01-2014,05:00,15.21020,R,ugm-3,40.64780,R,ugm-3,63.96978,R,ugm-3
05-01-2014,06:00,7.74542,R,ugm-3,37.66669,R,ugm-3,49.54283,R,ugm-3
05-01-2014,07:00,10.19387,R,ugm-3,39.68342,R,ugm-3,55.31380,R,ugm-3
05-01-2014,08:00,8.58828,R,ugm-3,56.38815,R,ugm-3,69.55667,R,ugm-3
05-01-2014,09:00,15.89216,R,ugm-3,64.40439,R,ugm-3,88.77203,R,ugm-3
05-01-2014,10:00,14.24697,R,ugm-3,58.08645,R,ugm-3,79.93150,R,ugm-3
05-01-2014,11:00,11.75861,R,ugm-3,45.44913,R,ugm-3,63.47874,R,ugm-3
05-01-2014,12:00,13.80543,R,ugm-3,48.14336,R,ugm-3,69.31139,R,ugm-3
05-01-2014,13:00,8.18697,R,ugm-3,40.18163,R,ugm-3,52.73480,R,ugm-3
05-01-2014,14:00,7.98615,R,ugm-3,36.31551,R,ugm-3,48.56077,R,ugm-3
05-01-2014,15:00,5.49779,R,ugm-3,32.27296,R,ugm-3,40.70278,R,ugm-3
05-01-2014,16:00,4.09364,R,ugm-3,26.69037,R,ugm-3,32.96720,R,ugm-3
05-01-2014,17:00,3.45159,R,ugm-3,21.53571,R,ugm-3,26.82807,R,ugm-3
05-01-2014,18:00,2.16687,R,ugm-3,15.70880,R,ugm-3,19.03129,R,ugm-3
05-01-2014,19:00,2.12696,R,ugm-3,15.52472,R,ugm-3,18.78601,R,ugm-3
05-01-2014,20:00,2.88968,R,ugm-3,20.74011,R,ugm-3,25.17089,R,ugm-3
05-01-2014,21:00,3.57164,R,ugm-3,23.74608,R,ugm-3,29.22252,R,ugm-3
05-01-2014,22:00,2.68856,R,ugm-3,14.11090,R,ugm-3,18.23330,R,ugm-3
05-01-2014,23:00,2.40822,R,ugm-3,14.47906,R,ugm-3,18.17162,R,ugm-3
05-01-2014,24:00,1.68541,R,ugm-3,11.04421,R,ugm-3,13.62848,R,ugm-3
06-01-2014,01:00,2.52079,R,ugm-3,8.53358,R,ugm-3,12.39874,R,ugm-3
06-01-2014,02:00,2.19899,R,ugm-3,10.25801,R,ugm-3,13.62975,R,ugm-3
06-01-2014,03:00,2.17217,R,ugm-3,12.43460,R,ugm-3,15.76522,R,ugm-3
06-01-2014,04:00,1.64924,R,ugm-3,8.61725,R,ugm-3,11.14605,R,ugm-3
06-01-2014,05:00,1.56879,R,ugm-3,8.30933,R,ugm-3,10.71478,R,ugm-3
06-01-2014,06:00,2.73533,R,ugm-3,12.43364,R,ugm-3,16.62775,R,ugm-3
06-01-2014,07:00,3.90187,R,ugm-3,18.52687,R,ugm-3,24.50964,R,ugm-3
06-01-2014,08:00,9.81500,R,ugm-3,29.59785,R,ugm-3,44.64731,R,ugm-3
06-01-2014,09:00,11.14244,R,ugm-3,38.89356,R,ugm-3,55.97840,R,ugm-3
06-01-2014,10:00,13.19394,R,ugm-3,40.79793,R,ugm-3,61.02835,R,ugm-3
06-01-2014,11:00,9.29207,R,ugm-3,33.10968,R,ugm-3,47.35733,R,ugm-3
06-01-2014,12:00,7.84396,R,ugm-3,25.41521,R,ugm-3,37.44245,R,ugm-3
06-01-2014,13:00,8.32666,R,ugm-3,26.70663,R,ugm-3,39.47400,R,ugm-3
06-01-2014,14:00,8.24621,R,ugm-3,24.86011,R,ugm-3,37.50413,R,ugm-3
06-01-2014,15:00,8.40711,R,ugm-3,22.58041,R,ugm-3,35.47114,R,ugm-3
06-01-2014,16:00,11.50447,R,ugm-3,30.94855,R,ugm-3,48.58850,R,ugm-3
06-01-2014,17:00,7.11990,R,ugm-3,26.46374,R,ugm-3,37.38077,R,ugm-3
06-01-2014,18:00,7.40148,R,ugm-3,25.72408,R,ugm-3,37.07286,R,ugm-3
06-01-2014,19:00,6.39584,R,ugm-3,23.38605,R,ugm-3,33.19287,R,ugm-3
06-01-2014,20:00,5.67179,R,ugm-3,23.63468,R,ugm-3,32.33129,R,ugm-3
06-01-2014,21:00,4.50525,R,ugm-3,16.92419,R,ugm-3,23.83214,R,ugm-3
06-01-2014,22:00,3.94209,R,ugm-3,16.18644,R,ugm-3,22.23090,R,ugm-3
06-01-2014,23:00,4.34435,R,ugm-3,15.69302,R,ugm-3,22.35426,R,ugm-3
06-01-2014,24:00,4.14322,R,ugm-3,15.01599,R,ugm-3,21.36884,R,ugm-3
07-01-2014,01:00,2.74157,R,ugm-3,12.35156,R,ugm-3,16.55524,R,ugm-3
07-01-2014,02:00,2.41935,R,ugm-3,12.18645,R,ugm-3,15.89606,R,ugm-3
07-01-2014,03:00,1.16903,R,ugm-3,8.77073,R,ugm-3,10.56322,R,ugm-3
07-01-2014,04:00,1.08858,R,ugm-3,7.53477,R,ugm-3,9.20391,R,ugm-3
07-01-2014,05:00,1.16903,R,ugm-3,8.64737,R,ugm-3,10.43986,R,ugm-3
07-01-2014,06:00,1.81451,R,ugm-3,9.51086,R,ugm-3,12.29307,R,ugm-3
07-01-2014,07:00,3.38673,R,ugm-3,15.43961,R,ugm-3,20.63253,R,ugm-3
07-01-2014,08:00,6.00731,R,ugm-3,21.92251,R,ugm-3,31.13359,R,ugm-3
07-01-2014,09:00,6.69270,R,ugm-3,25.01072,R,ugm-3,35.27272,R,ugm-3
07-01-2014,10:00,5.84610,R,ugm-3,25.81445,R,ugm-3,34.77833,R,ugm-3
07-01-2014,11:00,13.22481,R,ugm-3,33.65092,R,ugm-3,53.92868,R,ugm-3
07-01-2014,12:00,12.94230,R,ugm-3,35.38173,R,ugm-3,55.22631,R,ugm-3
07-01-2014,13:00,10.20073,R,ugm-3,30.25718,R,ugm-3,45.89809,R,ugm-3
07-01-2014,14:00,10.44271,R,ugm-3,32.66598,R,ugm-3,48.67791,R,ugm-3
07-01-2014,15:00,10.44240,R,ugm-3,35.07525,R,ugm-3,51.08670,R,ugm-3
07-01-2014,16:00,9.11215,R,ugm-3,31.12259,R,ugm-3,45.09436,R,ugm-3
07-01-2014,17:00,11.57151,R,ugm-3,36.18593,R,ugm-3,53.92868,R,ugm-3
07-01-2014,18:00,11.49106,R,ugm-3,38.59473,R,ugm-3,56.21411,R,ugm-3
07-01-2014,19:00,11.37008,R,ugm-3,42.05396,R,ugm-3,59.48783,R,ugm-3
07-01-2014,20:00,7.94312,R,ugm-3,36.56031,R,ugm-3,48.73958,R,ugm-3
07-01-2014,21:00,6.49126,R,ugm-3,28.84050,R,ugm-3,38.79363,R,ugm-3
07-01-2014,22:00,6.61225,R,ugm-3,24.94856,R,ugm-3,35.08720,R,ugm-3
07-01-2014,23:00,8.18478,R,ugm-3,33.34778,R,ugm-3,45.89761,R,ugm-3
07-01-2014,24:00,5.56389,R,ugm-3,25.38270,R,ugm-3,33.91388,R,ugm-3
08-01-2014,01:00,7.49004,R,ugm-3,24.37290,R,ugm-3,35.85746,R,ugm-3
08-01-2014,02:00,4.74182,R,ugm-3,21.89430,R,ugm-3,29.16499,R,ugm-3
08-01-2014,03:00,3.43506,R,ugm-3,14.25195,R,ugm-3,19.51898,R,ugm-3
08-01-2014,04:00,3.07116,R,ugm-3,16.23569,R,ugm-3,20.94474,R,ugm-3
08-01-2014,05:00,4.12233,R,ugm-3,20.94379,R,ugm-3,27.26460,R,ugm-3
08-01-2014,06:00,4.04156,R,ugm-3,23.36023,R,ugm-3,29.55721,R,ugm-3
08-01-2014,07:00,15.11447,R,ugm-3,41.82638,R,ugm-3,65.00157,R,ugm-3
08-01-2014,08:00,21.53994,R,ugm-3,56.07833,R,ugm-3,89.10577,R,ugm-3
08-01-2014,09:00,27.60150,R,ugm-3,69.33912,R,ugm-3,111.66083,R,ugm-3
08-01-2014,10:00,29.74374,R,ugm-3,60.72570,R,ugm-3,106.33213,R,ugm-3
08-01-2014,11:00,23.15613,R,ugm-3,51.49311,R,ugm-3,86.99867,R,ugm-3
08-01-2014,12:00,23.19697,R,ugm-3,48.08455,R,ugm-3,83.65275,R,ugm-3
08-01-2014,13:00,16.20523,R,ugm-3,40.64971,R,ugm-3,65.49739,R,ugm-3
08-01-2014,14:00,18.46877,R,ugm-3,48.51821,R,ugm-3,76.83660,R,ugm-3
08-01-2014,15:00,17.25640,R,ugm-3,48.02288,R,ugm-3,74.48231,R,ugm-3
08-01-2014,16:00,18.30693,R,ugm-3,56.94517,R,ugm-3,85.01541,R,ugm-3
08-01-2014,17:00,10.58802,R,ugm-3,50.75010,R,ugm-3,66.98483,R,ugm-3
08-01-2014,18:00,19.47877,R,ugm-3,51.98892,R,ugm-3,81.85596,R,ugm-3
08-01-2014,19:00,7.55739,R,ugm-3,38.17015,R,ugm-3,49.75799,R,ugm-3
08-01-2014,20:00,6.02134,R,ugm-3,35.01023,R,ugm-3,44.24282,R,ugm-3
08-01-2014,21:00,5.45569,R,ugm-3,30.98250,R,ugm-3,39.34778,R,ugm-3
08-01-2014,22:00,5.85982,R,ugm-3,30.05255,R,ugm-3,39.03747,R,ugm-3
08-01-2014,23:00,5.53645,R,ugm-3,25.28182,R,ugm-3,33.77093,R,ugm-3
08-01-2014,24:00,6.62784,R,ugm-3,19.82880,R,ugm-3,29.99135,R,ugm-3
09-01-2014,01:00,4.42542,R,ugm-3,15.75645,R,ugm-3,22.54200,R,ugm-3
09-01-2014,02:00,2.96816,R,ugm-3,15.00739,R,ugm-3,19.55850,R,ugm-3
09-01-2014,03:00,1.53792,R,ugm-3,12.68370,R,ugm-3,15.04181,R,ugm-3
09-01-2014,04:00,2.26666,R,ugm-3,11.25554,R,ugm-3,14.73103,R,ugm-3
09-01-2014,05:00,2.14504,R,ugm-3,11.93926,R,ugm-3,15.22828,R,ugm-3
09-01-2014,06:00,5.01882,R,ugm-3,17.10492,R,ugm-3,24.80034,R,ugm-3
09-01-2014,07:00,4.93775,R,ugm-3,20.89645,R,ugm-3,28.46756,R,ugm-3
09-01-2014,08:00,16.55417,R,ugm-3,42.86486,R,ugm-3,68.24756,R,ugm-3
09-01-2014,09:00,22.26119,R,ugm-3,55.24734,R,ugm-3,89.38069,R,ugm-3
09-01-2014,10:00,33.87760,R,ugm-3,67.33291,R,ugm-3,119.27784,R,ugm-3
09-01-2014,11:00,39.09880,R,ugm-3,58.58131,R,ugm-3,118.53197,R,ugm-3
09-01-2014,12:00,44.88690,R,ugm-3,59.65135,R,ugm-3,128.47697,R,ugm-3
09-01-2014,13:00,56.13879,R,ugm-3,68.56647,R,ugm-3,154.64475,R,ugm-3
09-01-2014,14:00,54.11505,R,ugm-3,67.87797,R,ugm-3,150.85322,R,ugm-3
09-01-2014,15:00,52.21260,R,ugm-3,71.54089,R,ugm-3,151.59909,R,ugm-3
09-01-2014,16:00,85.32093,R,ugm-3,87.96639,R,ugm-3,218.79000,R,ugm-3
09-01-2014,17:00,72.08583,R,ugm-3,84.57840,R,ugm-3,195.10847,R,ugm-3
09-01-2014,18:00,70.30469,R,ugm-3,86.62573,R,ugm-3,194.42475,R,ugm-3
09-01-2014,19:00,55.85534,R,ugm-3,75.46534,R,ugm-3,161.10900,R,ugm-3
09-01-2014,20:00,38.45114,R,ugm-3,73.80816,R,ugm-3,132.76575,R,ugm-3
09-01-2014,21:00,24.56807,R,ugm-3,63.58202,R,ugm-3,101.25253,R,ugm-3
09-01-2014,22:00,29.26353,R,ugm-3,64.21410,R,ugm-3,109.08422,R,ugm-3
09-01-2014,23:00,28.41349,R,ugm-3,67.94156,R,ugm-3,111.50831,R,ugm-3
09-01-2014,24:00,24.40654,R,ugm-3,53.44959,R,ugm-3,90.87244,R,ugm-3
10-01-2014,01:00,18.44507,R,ugm-3,51.60563,R,ugm-3,79.88768,R,ugm-3
10-01-2014,02:00,12.33289,R,ugm-3,45.51623,R,ugm-3,64.42639,R,ugm-3
10-01-2014,03:00,5.84173,R,ugm-3,32.37910,R,ugm-3,41.33630,R,ugm-3
10-01-2014,04:00,9.97996,R,ugm-3,34.45082,R,ugm-3,49.75321,R,ugm-3
10-01-2014,05:00,9.45266,R,ugm-3,33.63848,R,ugm-3,48.13237,R,ugm-3
10-01-2014,06:00,10.38533,R,ugm-3,36.01142,R,ugm-3,51.93537,R,ugm-3
10-01-2014,07:00,23.36754,R,ugm-3,54.20025,R,ugm-3,90.02998,R,ugm-3
10-01-2014,08:00,55.70036,R,ugm-3,75.20189,R,ugm-3,160.60793,R,ugm-3
10-01-2014,09:00,84.13849,R,ugm-3,80.72615,R,ugm-3,209.73670,R,ugm-3
10-01-2014,10:00,88.80402,R,ugm-3,89.90758,R,ugm-3,226.07184,R,ugm-3
10-01-2014,11:00,59.95958,R,ugm-3,85.13063,R,ugm-3,177.06738,R,ugm-3
10-01-2014,12:00,27.42439,R,ugm-3,62.38193,R,ugm-3,104.43206,R,ugm-3
10-01-2014,13:00,21.21720,R,ugm-3,51.88565,R,ugm-3,84.41823,R,ugm-3
10-01-2014,14:00,18.33687,R,ugm-3,47.94781,R,ugm-3,76.06395,R,ugm-3
10-01-2014,15:00,19.43262,R,ugm-3,50.38290,R,ugm-3,80.17917,R,ugm-3
10-01-2014,16:00,36.55213,R,ugm-3,66.52918,R,ugm-3,122.57499,R,ugm-3
10-01-2014,17:00,25.80165,R,ugm-3,70.66831,R,ugm-3,110.23028,R,ugm-3
10-01-2014,18:00,21.90727,R,ugm-3,63.85885,R,ugm-3,97.44953,R,ugm-3
10-01-2014,19:00,15.37516,R,ugm-3,55.91815,R,ugm-3,79.49306,R,ugm-3
10-01-2014,20:00,14.32088,R,ugm-3,52.48474,R,ugm-3,74.44311,R,ugm-3
10-01-2014,21:00,10.42587,R,ugm-3,46.04965,R,ugm-3,62.03576,R,ugm-3
10-01-2014,22:00,7.74885,R,ugm-3,37.24833,R,ugm-3,49.12973,R,ugm-3
10-01-2014,23:00,6.45041,R,ugm-3,31.82018,R,ugm-3,41.71067,R,ugm-3
10-01-2014,24:00,8.72206,R,ugm-3,31.20483,R,ugm-3,44.57846,R,ugm-3
11-01-2014,01:00,10.19294,R,ugm-3,34.73546,R,ugm-3,50.36441,R,ugm-3
11-01-2014,02:00,5.09647,R,ugm-3,30.45911,R,ugm-3,38.27359,R,ugm-3
11-01-2014,03:00,5.28606,R,ugm-3,23.78959,R,ugm-3,31.89476,R,ugm-3
11-01-2014,04:00,4.22866,R,ugm-3,21.84649,R,ugm-3,28.33034,R,ugm-3
11-01-2014,05:00,3.90343,R,ugm-3,20.71955,R,ugm-3,26.70472,R,ugm-3
11-01-2014,06:00,9.75919,R,ugm-3,29.56390,R,ugm-3,44.52778,R,ugm-3
11-01-2014,07:00,18.70451,R,ugm-3,48.61814,R,ugm-3,77.29799,R,ugm-3
11-01-2014,08:00,24.23442,R,ugm-3,54.96047,R,ugm-3,92.11939,R,ugm-3
11-01-2014,09:00,37.12401,R,ugm-3,61.08812,R,ugm-3,118.01081,R,ugm-3
11-01-2014,10:00,61.88728,R,ugm-3,73.14930,R,ugm-3,168.04181,R,ugm-3
11-01-2014,11:00,65.83187,R,ugm-3,76.66926,R,ugm-3,177.61005,R,ugm-3
11-01-2014,12:00,79.98218,R,ugm-3,79.23774,R,ugm-3,201.87537,R,ugm-3
11-01-2014,13:00,59.32595,R,ugm-3,72.51100,R,ugm-3,163.47620,R,ugm-3
11-01-2014,14:00,61.72482,R,ugm-3,74.58607,R,ugm-3,169.22948,R,ugm-3
11-01-2014,15:00,57.37393,R,ugm-3,71.81390,R,ugm-3,159.78603,R,ugm-3
11-01-2014,16:00,84.73969,R,ugm-3,81.88656,R,ugm-3,211.81894,R,ugm-3
11-01-2014,17:00,100.31317,R,ugm-3,98.03188,R,ugm-3,251.84326,R,ugm-3
11-01-2014,18:00,145.36658,R,ugm-3,116.38041,R,ugm-3,339.27272,R,ugm-3
11-01-2014,19:00,150.81541,R,ugm-3,109.52648,R,ugm-3,340.77355,R,ugm-3
11-01-2014,20:00,166.95797,R,ugm-3,117.60823,R,ugm-3,373.60688,R,ugm-3
11-01-2014,21:00,171.39025,R,ugm-3,114.37658,R,ugm-3,377.17130,R,ugm-3
11-01-2014,22:00,223.80366,R,ugm-3,120.62663,R,ugm-3,463.78747,R,ugm-3
11-01-2014,23:00,217.62298,R,ugm-3,110.40384,R,ugm-3,444.08776,R,ugm-3
11-01-2014,24:00,235.51425,R,ugm-3,108.98668,R,ugm-3,470.10350,R,ugm-3
12-01-2014,01:00,257.79196,R,ugm-3,109.20694,R,ugm-3,504.48244,R,ugm-3
12-01-2014,02:00,346.09582,R,ugm-3,121.63054,R,ugm-3,652.30339,R,ugm-3
12-01-2014,03:00,301.79515,R,ugm-3,107.40170,R,ugm-3,570.14781,R,ugm-3
12-01-2014,04:00,177.93888,R,ugm-3,82.73762,R,ugm-3,355.57343,R,ugm-3
12-01-2014,05:00,120.02518,R,ugm-3,71.59539,R,ugm-3,255.63144,R,ugm-3
12-01-2014,06:00,136.24570,R,ugm-3,76.85764,R,ugm-3,285.76479,R,ugm-3
12-01-2014,07:00,130.09183,R,ugm-3,73.86362,R,ugm-3,273.33498,R,ugm-3
12-01-2014,08:00,107.92045,R,ugm-3,70.25473,R,ugm-3,235.73045,R,ugm-3
12-01-2014,09:00,30.77027,R,ugm-3,58.91408,R,ugm-3,106.09450,R,ugm-3
12-01-2014,10:00,30.68919,R,ugm-3,64.43786,R,ugm-3,111.49397,R,ugm-3
12-01-2014,11:00,21.31542,R,ugm-3,58.59565,R,ugm-3,91.27884,R,ugm-3
12-01-2014,12:00,6.23588,R,ugm-3,32.18546,R,ugm-3,41.74701,R,ugm-3
12-01-2014,13:00,6.76536,R,ugm-3,27.10443,R,ugm-3,37.47783,R,ugm-3
12-01-2014,14:00,7.98802,R,ugm-3,28.93421,R,ugm-3,41.18234,R,ugm-3
12-01-2014,15:00,8.51781,R,ugm-3,34.90217,R,ugm-3,47.96263,R,ugm-3
12-01-2014,16:00,9.37377,R,ugm-3,37.67051,R,ugm-3,52.04343,R,ugm-3
12-01-2014,17:00,15.40540,R,ugm-3,45.99897,R,ugm-3,69.62026,R,ugm-3
12-01-2014,18:00,21.51904,R,ugm-3,51.81728,R,ugm-3,84.81268,R,ugm-3
12-01-2014,19:00,11.00430,R,ugm-3,37.74367,R,ugm-3,54.61670,R,ugm-3
12-01-2014,20:00,10.43367,R,ugm-3,35.41711,R,ugm-3,51.41517,R,ugm-3
12-01-2014,21:00,5.37961,R,ugm-3,24.83525,R,ugm-3,33.08386,R,ugm-3
12-01-2014,22:00,7.58078,R,ugm-3,24.28493,R,ugm-3,35.90862,R,ugm-3
12-01-2014,23:00,5.58323,R,ugm-3,25.15081,R,ugm-3,33.71164,R,ugm-3
12-01-2014,24:00,3.87193,R,ugm-3,21.55961,R,ugm-3,27.49649,R,ugm-3
13-01-2014,01:00,9.85076,R,ugm-3,30.06514,R,ugm-3,45.16943,R,ugm-3
13-01-2014,02:00,5.49685,R,ugm-3,32.04011,R,ugm-3,40.46850,R,ugm-3
13-01-2014,03:00,3.42820,R,ugm-3,19.30143,R,ugm-3,24.55793,R,ugm-3
13-01-2014,04:00,3.02034,R,ugm-3,16.90411,R,ugm-3,21.53523,R,ugm-3
13-01-2014,05:00,4.12264,R,ugm-3,21.69970,R,ugm-3,28.02099,R,ugm-3
13-01-2014,06:00,7.10244,R,ugm-3,28.52876,R,ugm-3,39.41902,R,ugm-3
13-01-2014,07:00,16.89873,R,ugm-3,48.83330,R,ugm-3,74.74433,R,ugm-3
13-01-2014,08:00,46.24677,R,ugm-3,86.00799,R,ugm-3,156.91871,R,ugm-3
13-01-2014,09:00,39.91984,R,ugm-3,82.86337,R,ugm-3,144.07293,R,ugm-3
13-01-2014,10:00,41.14437,R,ugm-3,81.48971,R,ugm-3,144.57687,R,ugm-3
13-01-2014,11:00,23.14365,R,ugm-3,66.39770,R,ugm-3,101.88413,R,ugm-3
13-01-2014,12:00,17.87818,R,ugm-3,54.82516,R,ugm-3,82.23798,R,ugm-3
13-01-2014,13:00,12.73525,R,ugm-3,41.42714,R,ugm-3,60.95424,R,ugm-3
13-01-2014,14:00,11.51071,R,ugm-3,34.42596,R,ugm-3,52.07546,R,ugm-3
13-01-2014,15:00,10.24532,R,ugm-3,43.29278,R,ugm-3,59.00206,R,ugm-3
13-01-2014,16:00,10.57180,R,ugm-3,43.86271,R,ugm-3,60.07258,R,ugm-3
13-01-2014,17:00,7.10213,R,ugm-3,45.34155,R,ugm-3,56.23133,R,ugm-3
13-01-2014,18:00,12.85748,R,ugm-3,41.68055,R,ugm-3,61.39508,R,ugm-3
13-01-2014,19:00,23.47044,R,ugm-3,58.27674,R,ugm-3,94.26426,R,ugm-3
13-01-2014,20:00,12.00059,R,ugm-3,53.32146,R,ugm-3,71.72210,R,ugm-3
13-01-2014,21:00,8.00018,R,ugm-3,35.90480,R,ugm-3,48.17157,R,ugm-3
13-01-2014,22:00,11.96005,R,ugm-3,48.66022,R,ugm-3,66.99870,R,ugm-3
13-01-2014,23:00,6.73542,R,ugm-3,34.63298,R,ugm-3,44.96048,R,ugm-3
13-01-2014,24:00,7.26615,R,ugm-3,38.22609,R,ugm-3,49.36736,R,ugm-3
14-01-2014,01:00,6.38243,R,ugm-3,30.80464,R,ugm-3,40.59090,R,ugm-3
14-01-2014,02:00,6.60030,R,ugm-3,35.77650,R,ugm-3,45.89681,R,ugm-3
14-01-2014,03:00,10.75983,R,ugm-3,39.52516,R,ugm-3,56.02334,R,ugm-3
14-01-2014,04:00,16.16002,R,ugm-3,49.24544,R,ugm-3,74.02379,R,ugm-3
14-01-2014,05:00,26.46989,R,ugm-3,59.77519,R,ugm-3,100.36178,R,ugm-3
14-01-2014,06:00,41.64797,R,ugm-3,63.66139,R,ugm-3,127.52072,R,ugm-3
14-01-2014,07:00,78.50880,R,ugm-3,85.77706,R,ugm-3,206.15555,R,ugm-3
14-01-2014,08:00,128.70733,R,ugm-3,89.77849,R,ugm-3,287.12697,R,ugm-3
14-01-2014,09:00,164.62739,R,ugm-3,96.91450,R,ugm-3,349.33964,R,ugm-3
14-01-2014,10:00,163.68661,R,ugm-3,102.46219,R,ugm-3,353.44482,R,ugm-3
14-01-2014,11:00,135.58058,R,ugm-3,100.90302,R,ugm-3,308.79034,R,ugm-3
14-01-2014,12:00,131.08000,R,ugm-3,96.94128,R,ugm-3,297.92782,R,ugm-3
14-01-2014,13:00,101.09211,R,ugm-3,86.70845,R,ugm-3,241.71418,R,ugm-3
14-01-2014,14:00,104.56927,R,ugm-3,87.43998,R,ugm-3,247.77728,R,ugm-3
14-01-2014,15:00,97.40976,R,ugm-3,100.94510,R,ugm-3,250.30465,R,ugm-3
14-01-2014,16:00,102.23806,R,ugm-3,97.83633,R,ugm-3,254.59917,R,ugm-3
14-01-2014,17:00,58.99448,R,ugm-3,85.76033,R,ugm-3,176.21727,R,ugm-3
14-01-2014,18:00,43.07987,R,ugm-3,79.97167,R,ugm-3,146.02655,R,ugm-3
14-01-2014,19:00,44.96174,R,ugm-3,86.24419,R,ugm-3,155.18455,R,ugm-3
14-01-2014,20:00,28.67917,R,ugm-3,75.33577,R,ugm-3,119.30988,R,ugm-3
14-01-2014,21:00,17.18281,R,ugm-3,67.63604,R,ugm-3,93.98264,R,ugm-3
14-01-2014,22:00,6.17725,R,ugm-3,47.68867,R,ugm-3,57.16032,R,ugm-3
14-01-2014,23:00,4.95022,R,ugm-3,42.11660,R,ugm-3,49.70683,R,ugm-3
14-01-2014,24:00,3.80458,R,ugm-3,27.76807,R,ugm-3,33.60167,R,ugm-3
15-01-2014,01:00,2.51456,R,ugm-3,17.93798,R,ugm-3,21.79358,R,ugm-3
15-01-2014,02:00,2.40604,R,ugm-3,20.38406,R,ugm-3,24.07328,R,ugm-3
15-01-2014,03:00,1.84538,R,ugm-3,19.27943,R,ugm-3,22.10898,R,ugm-3
15-01-2014,04:00,2.78834,R,ugm-3,17.26366,R,ugm-3,21.53905,R,ugm-3
15-01-2014,05:00,2.00940,R,ugm-3,19.02842,R,ugm-3,22.10946,R,ugm-3
15-01-2014,06:00,4.18251,R,ugm-3,26.27584,R,ugm-3,32.68893,R,ugm-3
15-01-2014,07:00,11.03019,R,ugm-3,42.76398,R,ugm-3,59.67669,R,ugm-3
15-01-2014,08:00,20.29763,R,ugm-3,63.39842,R,ugm-3,94.52101,R,ugm-3
15-01-2014,09:00,20.46102,R,ugm-3,68.78545,R,ugm-3,100.15858,R,ugm-3
15-01-2014,10:00,16.89374,R,ugm-3,58.67072,R,ugm-3,84.57410,R,ugm-3
15-01-2014,11:00,15.45872,R,ugm-3,45.85697,R,ugm-3,69.56002,R,ugm-3
15-01-2014,12:00,11.23506,R,ugm-3,47.07475,R,ugm-3,64.30160,R,ugm-3
15-01-2014,13:00,13.90085,R,ugm-3,47.73935,R,ugm-3,69.05368,R,ugm-3
15-01-2014,14:00,,,,,,,,,
15-01-2014,15:00,14.27005,R,ugm-3,43.49790,R,ugm-3,65.37833,R,ugm-3